Погода в Кингстоне

Ямайка     17°59′36″N   76°48′11″W
темп.,
°C
ветер,
м/с
пор.,
м/с
влажн.,
%
обл.,
%
осадки,
мм/ч
давл.,
гПа
погр.,
м
25 февраля, чт
чт2501:00+20св118556 0.0 101799
04:00+20всв118416 0.0 101558
07:00+20ссв12848 0.0 101762
10:00+28ююв13523 0.1 10181230
13:00+28юв345321 0.3 10161208
16:00+26юв455817 0.3 1015915
19:00+22в237414 0.4 1015224
22:00+20св11790 0.0 101665
26 февраля, пт
пт2601:00+20ссв12840 0.0 101668
04:00+20всв118610 0.1 101469
07:00+20всв118544 0.1 101662
10:00+27юв2450100 0.0 10171356
13:00+29юв4551100 0.1 10161415
16:00+28вюв355057 0.1 10141075
19:00+22в236831 0.1 1015223
22:00+20св22760 0.0 101684
27 февраля, сб
сб2701:00+19ссв23828 0.0 1016104
04:00+20св228628 0.1 101586
07:00+20св128615 0.1 101765
10:00+28ююв23471 0.0 10181349
13:00+31вюв34340 0.0 10161617
16:00+29в23412 0.0 10141411
19:00+23св22641 0.0 1016109
22:00+21ссв22770 0.0 1017110
28 февраля, вс
вс2801:00+20св12750 0.0 101678
04:00+20св12750 0.0 101552
07:00+20св11780 0.0 101652
10:00+27юв24603 0.2 10171164
13:00+30в364315 0.4 10162015
16:00+28вюв46498 0.0 10141538
19:00+22в247414 0.1 1015285
22:00+21ссв228221 0.0 1017103
1 марта, пн
пн101:00+20всв118411 0.0 101581
04:00+20всв118516 0.0 101465
07:00+20всв128421 0.0 101569
10:00+28юв255343 0.0 10171404
13:00+30юв354528 0.1 10151559
16:00+29вюв134911 0.1 10141104
19:00+23св22779 0.3 1014117
22:00+21ссв12794 0.0 101693